Time,TemperatureF,DewpointF,PressureIn,WindDirection,WindDirectionDegrees,WindSpeedMPH,WindSpeedGustMPH,Humidity,HourlyPrecipIn,Conditions,Clouds,dailyrainin,SoftwareType,DateUTC
2013-09-22 00:00:00,54.4,48.4,29.97,ESE,120,0.0,0.0,80,0.00,,---,0.00,VWS V14.01,2013-09-22 05:00:00,
2013-09-22 00:05:00,54.2,48.2,29.96,ESE,120,0.0,0.0,80,0.00,,---,0.00,VWS V14.01,2013-09-22 05:05:00,
2013-09-22 00:10:00,54.1,48.1,29.96,ESE,115,1.0,1.0,80,0.00,,---,0.00,VWS V14.01,2013-09-22 05:10:00,
2013-09-22 00:15:00,54.3,48.3,29.96,ESE,114,0.0,1.0,80,0.00,,---,0.00,VWS V14.01,2013-09-22 05:15:00,
2013-09-22 00:20:00,54.4,48.0,29.96,East,98,0.0,1.0,79,0.00,,---,0.00,VWS V14.01,2013-09-22 05:20:00,
2013-09-22 00:26:00,54.4,48.0,29.96,SE,138,0.0,1.0,79,0.00,,---,0.00,VWS V14.01,2013-09-22 05:26:00,
2013-09-22 00:31:00,54.6,48.2,29.96,SE,139,0.0,0.0,79,0.00,,---,0.00,VWS V14.01,2013-09-22 05:31:00,
2013-09-22 00:36:00,54.2,47.8,29.96,SE,139,0.0,1.0,79,0.00,,---,0.00,VWS V14.01,2013-09-22 05:36:00,
2013-09-22 00:41:00,53.9,47.5,29.96,SE,138,0.0,1.0,79,0.00,,---,0.00,VWS V14.01,2013-09-22 05:41:00,
2013-09-22 00:46:00,53.8,47.5,29.96,SE,139,0.0,1.0,79,0.00,,---,0.00,VWS V14.01,2013-09-22 05:46:00,
2013-09-22 00:52:00,53.9,47.9,29.96,SE,138,0.0,1.0,80,0.00,,---,0.00,VWS V14.01,2013-09-22 05:52:00,
2013-09-22 00:57:00,53.7,47.7,29.96,SE,139,0.0,1.0,80,0.00,,---,0.00,VWS V14.01,2013-09-22 05:57:00,
2013-09-22 01:02:00,53.6,47.6,29.96,SE,138,0.0,0.0,80,0.00,,---,0.00,VWS V14.01,2013-09-22 06:02:00,
2013-09-22 01:07:00,53.4,47.4,29.96,SE,138,0.0,0.0,80,0.00,,---,0.00,VWS V14.01,2013-09-22 06:07:00,
2013-09-22 01:12:00,53.2,47.5,29.96,SE,139,0.0,0.0,81,0.00,,---,0.00,VWS V14.01,2013-09-22 06:12:00,
2013-09-22 01:18:00,53.2,47.5,29.96,SE,139,0.0,0.0,81,0.00,,---,0.00,VWS V14.01,2013-09-22 06:18:00,
2013-09-22 01:23:00,53.2,47.5,29.96,SE,139,0.0,0.0,81,0.00,,---,0.00,VWS V14.01,2013-09-22 06:23:00,
2013-09-22 01:28:00,53.0,47.3,29.96,SE,139,0.0,0.0,81,0.00,,---,0.00,VWS V14.01,2013-09-22 06:28:00,
2013-09-22 01:33:00,52.8,47.5,29.96,SE,138,0.0,0.0,82,0.00,,---,0.00,VWS V14.01,2013-09-22 06:33:00,
2013-09-22 01:38:00,52.5,47.2,29.96,SE,139,0.0,0.0,82,0.00,,---,0.00,VWS V14.01,2013-09-22 06:38:00,
2013-09-22 01:44:00,52.5,47.5,29.96,SE,138,0.0,0.0,83,0.00,,---,0.00,VWS V14.01,2013-09-22 06:44:00,
2013-09-22 01:49:00,52.6,47.3,29.96,SE,142,0.0,0.0,82,0.00,,---,0.00,VWS V14.01,2013-09-22 06:49:00,
2013-09-22 01:54:00,52.7,47.4,29.97,ESE,123,0.0,0.0,82,0.00,,---,0.00,VWS V14.01,2013-09-22 06:54:00,
2013-09-22 01:59:00,52.5,47.2,29.97,ESE,123,0.0,0.0,82,0.00,,---,0.00,VWS V14.01,2013-09-22 06:59:00,
2013-09-22 02:04:00,52.5,47.2,29.97,SSE,162,0.0,1.0,82,0.00,,---,0.00,VWS V14.01,2013-09-22 07:04:00,
2013-09-22 02:09:00,52.3,47.0,29.97,SSE,162,0.0,1.0,82,0.00,,---,0.00,VWS V14.01,2013-09-22 07:09:00,
2013-09-22 02:14:00,52.3,47.0,29.97,ESE,109,0.0,1.0,82,0.00,,---,0.00,VWS V14.01,2013-09-22 07:14:00,
2013-09-22 02:19:00,52.2,46.9,29.97,ESE,108,0.0,1.0,82,0.00,,---,0.00,VWS V14.01,2013-09-22 07:19:00,
2013-09-22 02:24:00,52.0,46.7,29.97,ESE,109,0.0,1.0,82,0.00,,---,0.00,VWS V14.01,2013-09-22 07:24:00,
2013-09-22 02:30:00,51.8,46.8,29.97,SE,138,0.0,1.0,83,0.00,,---,0.00,VWS V14.01,2013-09-22 07:30:00,
2013-09-22 02:35:00,51.8,46.8,29.97,SE,139,0.0,1.0,83,0.00,,---,0.00,VWS V14.01,2013-09-22 07:35:00,
2013-09-22 02:40:00,51.7,46.7,29.97,SE,139,0.0,1.0,83,0.00,,---,0.00,VWS V14.01,2013-09-22 07:40:00,
2013-09-22 02:45:00,51.7,46.7,29.97,SE,138,0.0,1.0,83,0.00,,---,0.00,VWS V14.01,2013-09-22 07:45:00,
2013-09-22 02:50:00,51.7,46.7,29.97,SE,131,0.0,1.0,83,0.00,,---,0.00,VWS V14.01,2013-09-22 07:50:00,
2013-09-22 02:55:00,51.7,47.0,29.97,ESE,117,0.0,3.0,84,0.00,,---,0.00,VWS V14.01,2013-09-22 07:55:00,
2013-09-22 03:00:00,51.8,47.1,29.97,ESE,115,0.0,1.0,84,0.00,,---,0.00,VWS V14.01,2013-09-22 08:00:00,
2013-09-22 03:06:00,51.8,47.1,29.97,SE,142,0.0,1.0,84,0.00,,---,0.00,VWS V14.01,2013-09-22 08:06:00,
2013-09-22 03:11:00,52.0,47.0,29.97,East,96,0.0,4.0,83,0.00,,---,0.00,VWS V14.01,2013-09-22 08:11:00,
2013-09-22 03:16:00,52.0,47.0,29.97,SE,131,0.0,4.0,83,0.00,,---,0.00,VWS V14.01,2013-09-22 08:16:00,
2013-09-22 03:21:00,51.9,46.9,29.97,ESE,113,0.0,4.0,83,0.00,,---,0.00,VWS V14.01,2013-09-22 08:21:00,
2013-09-22 03:26:00,51.9,46.9,29.97,ESE,113,0.0,4.0,83,0.00,,---,0.00,VWS V14.01,2013-09-22 08:26:00,
2013-09-22 03:31:00,51.8,46.8,29.97,ESE,113,0.0,0.0,83,0.00,,---,0.00,VWS V14.01,2013-09-22 08:31:00,
2013-09-22 03:36:00,51.7,46.7,29.97,ESE,113,0.0,0.0,83,0.00,,---,0.00,VWS V14.01,2013-09-22 08:36:00,
2013-09-22 03:41:00,51.6,46.9,29.97,East,101,0.0,1.0,84,0.00,,---,0.00,VWS V14.01,2013-09-22 08:41:00,
2013-09-22 03:46:00,51.6,46.9,29.97,East,101,0.0,1.0,84,0.00,,---,0.00,VWS V14.01,2013-09-22 08:46:00,
2013-09-22 03:51:00,51.6,46.9,29.97,East,100,0.0,1.0,84,0.00,,---,0.00,VWS V14.01,2013-09-22 08:51:00,
2013-09-22 03:56:00,51.5,46.8,29.97,East,101,0.0,1.0,84,0.00,,---,0.00,VWS V14.01,2013-09-22 08:56:00,
2013-09-22 04:02:00,51.4,47.0,29.97,ESE,105,0.0,0.0,85,0.00,,---,0.00,VWS V14.01,2013-09-22 09:02:00,
2013-09-22 04:07:00,51.3,47.0,29.97,ESE,105,0.0,0.0,85,0.00,,---,0.00,VWS V14.01,2013-09-22 09:07:00,
2013-09-22 04:12:00,51.2,46.8,29.97,ESE,105,0.0,0.0,85,0.00,,---,0.00,VWS V14.01,2013-09-22 09:12:00,
2013-09-22 04:17:00,51.2,46.8,29.97,ESE,106,0.0,0.0,85,0.00,,---,0.00,VWS V14.01,2013-09-22 09:17:00,
2013-09-22 04:22:00,51.2,46.8,29.97,ESE,106,0.0,0.0,85,0.00,,---,0.00,VWS V14.01,2013-09-22 09:22:00,
2013-09-22 04:27:00,51.0,46.7,29.97,ESE,105,0.0,0.0,85,0.00,,---,0.00,VWS V14.01,2013-09-22 09:27:00,
2013-09-22 04:32:00,50.7,46.7,29.98,ESE,105,0.0,0.0,86,0.00,,---,0.00,VWS V14.01,2013-09-22 09:32:00,
2013-09-22 04:37:00,50.6,46.6,29.98,ESE,105,0.0,0.0,86,0.00,,---,0.00,VWS V14.01,2013-09-22 09:37:00,
2013-09-22 04:42:00,50.8,46.8,29.98,SE,129,0.0,1.0,86,0.00,,---,0.00,VWS V14.01,2013-09-22 09:42:00,
2013-09-22 04:47:00,50.9,46.9,29.98,SE,139,0.0,1.0,86,0.00,,---,0.00,VWS V14.01,2013-09-22 09:47:00,
2013-09-22 04:53:00,50.9,46.9,29.97,SE,132,0.0,1.0,86,0.00,,---,0.00,VWS V14.01,2013-09-22 09:53:00,
2013-09-22 04:58:00,50.9,46.9,29.97,SE,133,0.0,1.0,86,0.00,,---,0.00,VWS V14.01,2013-09-22 09:58:00,
2013-09-22 05:03:00,50.8,46.8,29.98,SE,128,0.0,1.0,86,0.00,,---,0.00,VWS V14.01,2013-09-22 10:03:00,
2013-09-22 05:08:00,50.7,46.7,29.98,SE,131,0.0,2.0,86,0.00,,---,0.00,VWS V14.01,2013-09-22 10:08:00,
2013-09-22 05:13:00,50.8,46.8,29.98,SSE,166,0.0,2.0,86,0.00,,---,0.00,VWS V14.01,2013-09-22 10:13:00,
2013-09-22 05:18:00,50.7,46.7,29.98,SSE,166,0.0,2.0,86,0.00,,---,0.00,VWS V14.01,2013-09-22 10:18:00,
2013-09-22 05:23:00,50.6,46.6,29.98,SSE,166,0.0,2.0,86,0.00,,---,0.00,VWS V14.01,2013-09-22 10:23:00,
2013-09-22 05:28:00,50.5,46.8,29.98,SSE,166,0.0,2.0,87,0.00,,---,0.00,VWS V14.01,2013-09-22 10:28:00,
2013-09-22 05:33:00,50.4,46.7,29.98,SSE,166,0.0,0.0,87,0.00,,---,0.00,VWS V14.01,2013-09-22 10:33:00,
2013-09-22 05:38:00,50.3,46.6,29.98,ESE,122,0.0,1.0,87,0.00,,---,0.00,VWS V14.01,2013-09-22 10:38:00,
2013-09-22 05:43:00,50.5,46.8,29.98,ESE,120,0.0,1.0,87,0.00,,---,0.00,VWS V14.01,2013-09-22 10:43:00,
2013-09-22 05:49:00,50.4,46.7,29.98,ESE,120,0.0,1.0,87,0.00,,---,0.00,VWS V14.01,2013-09-22 10:49:00,
2013-09-22 05:54:00,50.4,46.7,29.98,ESE,116,0.0,1.0,87,0.00,,---,0.00,VWS V14.01,2013-09-22 10:54:00,
2013-09-22 05:59:00,50.4,46.7,29.98,ESE,115,0.0,0.0,87,0.00,,---,0.00,VWS V14.01,2013-09-22 10:59:00,
2013-09-22 06:04:00,50.6,46.9,29.98,ESE,113,0.0,2.0,87,0.00,,---,0.00,VWS V14.01,2013-09-22 11:04:00,
2013-09-22 06:09:00,50.6,46.6,29.98,ESE,113,0.0,2.0,86,0.00,,---,0.00,VWS V14.01,2013-09-22 11:09:00,
2013-09-22 06:14:00,50.6,46.6,29.98,ESE,113,0.0,2.0,86,0.00,,---,0.00,VWS V14.01,2013-09-22 11:14:00,
2013-09-22 06:19:00,50.4,46.4,29.98,ESE,113,0.0,2.0,86,0.00,,---,0.00,VWS V14.01,2013-09-22 11:19:00,
2013-09-22 06:24:00,50.3,46.6,29.98,ESE,113,0.0,2.0,87,0.00,,---,0.00,VWS V14.01,2013-09-22 11:24:00,
2013-09-22 06:29:00,50.2,46.5,29.99,ESE,113,0.0,0.0,87,0.00,,---,0.00,VWS V14.01,2013-09-22 11:29:00,
2013-09-22 06:34:00,50.2,46.5,29.99,East,98,0.0,0.0,87,0.00,,---,0.00,VWS V14.01,2013-09-22 11:34:00,
2013-09-22 06:40:00,50.3,46.6,29.99,East,85,0.0,1.0,87,0.00,,---,0.00,VWS V14.01,2013-09-22 11:40:00,
2013-09-22 06:45:00,50.4,46.7,29.99,East,86,0.0,1.0,87,0.00,,---,0.00,VWS V14.01,2013-09-22 11:45:00,
2013-09-22 06:50:00,50.4,46.7,29.99,East,86,0.0,1.0,87,0.00,,---,0.00,VWS V14.01,2013-09-22 11:50:00,
2013-09-22 06:55:00,50.3,46.6,29.99,ESE,123,0.0,1.0,87,0.00,,---,0.00,VWS V14.01,2013-09-22 11:55:00,
2013-09-22 07:00:00,50.2,46.5,29.99,ESE,122,0.0,1.0,87,0.00,,---,0.00,VWS V14.01,2013-09-22 12:00:00,
2013-09-22 07:05:00,50.2,46.5,29.99,ESE,123,0.0,1.0,87,0.00,,---,0.00,VWS V14.01,2013-09-22 12:05:00,
2013-09-22 07:10:00,50.1,46.4,29.99,ESE,122,0.0,1.0,87,0.00,,---,0.00,VWS V14.01,2013-09-22 12:10:00,
2013-09-22 07:15:00,50.0,46.3,30.00,ESE,122,0.0,1.0,87,0.00,,---,0.00,VWS V14.01,2013-09-22 12:15:00,
2013-09-22 07:20:00,49.9,46.5,30.00,ESE,117,0.0,1.0,88,0.00,,---,0.00,VWS V14.01,2013-09-22 12:20:00,
2013-09-22 07:26:00,49.9,46.5,30.00,ESE,117,0.0,1.0,88,0.00,,---,0.00,VWS V14.01,2013-09-22 12:26:00,
2013-09-22 07:31:00,50.4,47.0,30.00,ESE,117,0.0,0.0,88,0.00,,---,0.00,VWS V14.01,2013-09-22 12:31:00,
2013-09-22 07:36:00,51.3,47.3,30.00,East,88,0.0,2.0,86,0.00,,---,0.00,VWS V14.01,2013-09-22 12:36:00,
2013-09-22 07:41:00,52.2,47.8,30.00,East,89,0.0,2.0,85,0.00,,---,0.00,VWS V14.01,2013-09-22 12:41:00,
2013-09-22 07:46:00,52.8,47.8,30.00,SE,124,0.0,2.0,83,0.00,,---,0.00,VWS V14.01,2013-09-22 12:46:00,
2013-09-22 07:51:00,53.0,47.7,30.00,East,82,1.0,3.0,82,0.00,,---,0.00,VWS V14.01,2013-09-22 12:51:00,
2013-09-22 07:56:00,53.1,47.8,30.00,East,98,2.0,3.0,82,0.00,,---,0.00,VWS V14.01,2013-09-22 12:56:00,
2013-09-22 08:01:00,53.5,48.2,30.00,East,89,0.0,1.0,82,0.00,,---,0.00,VWS V14.01,2013-09-22 13:01:00,
2013-09-22 08:06:00,54.5,49.1,30.00,East,81,0.0,1.0,82,0.00,,---,0.00,VWS V14.01,2013-09-22 13:06:00,
2013-09-22 08:12:00,55.2,48.8,30.00,SE,139,0.0,2.0,79,0.00,,---,0.00,VWS V14.01,2013-09-22 13:12:00,
2013-09-22 08:17:00,55.9,49.2,30.00,SE,134,0.0,2.0,78,0.00,,---,0.00,VWS V14.01,2013-09-22 13:17:00,
2013-09-22 08:22:00,56.4,49.3,30.00,South,176,0.0,3.0,77,0.00,,---,0.00,VWS V14.01,2013-09-22 13:22:00,
2013-09-22 08:27:00,56.5,49.4,30.00,SSW,194,0.0,3.0,77,0.00,,---,0.00,VWS V14.01,2013-09-22 13:27:00,
2013-09-22 08:32:00,56.5,49.0,30.01,SE,142,1.0,5.0,76,0.00,,---,0.00,VWS V14.01,2013-09-22 13:32:00,
2013-09-22 08:37:00,56.4,48.9,30.01,SSE,165,2.0,6.0,76,0.00,,---,0.00,VWS V14.01,2013-09-22 13:37:00,
2013-09-22 08:42:00,56.7,49.2,30.01,NE,53,2.0,6.0,76,0.00,,---,0.00,VWS V14.01,2013-09-22 13:42:00,
2013-09-22 08:47:00,57.0,49.2,30.01,SSE,148,0.0,6.0,75,0.00,,---,0.00,VWS V14.01,2013-09-22 13:47:00,
2013-09-22 08:52:00,57.2,49.4,30.01,South,170,2.0,6.0,75,0.00,,---,0.00,VWS V14.01,2013-09-22 13:52:00,
2013-09-22 08:58:00,57.4,49.9,30.01,SE,134,3.0,8.0,76,0.00,,---,0.00,VWS V14.01,2013-09-22 13:58:00,
2013-09-22 09:03:00,57.6,49.8,30.01,SE,130,3.0,7.0,75,0.00,,---,0.00,VWS V14.01,2013-09-22 14:03:00,
2013-09-22 09:08:00,58.0,50.1,30.01,East,99,0.0,7.0,75,0.00,,---,0.00,VWS V14.01,2013-09-22 14:08:00,
2013-09-22 09:13:00,58.2,50.3,30.01,ESE,117,3.0,7.0,75,0.00,,---,0.00,VWS V14.01,2013-09-22 14:13:00,
2013-09-22 09:18:00,58.7,50.5,30.01,SSE,158,2.0,7.0,74,0.00,,---,0.00,VWS V14.01,2013-09-22 14:18:00,
2013-09-22 09:23:00,59.4,51.5,30.01,SSW,200,2.0,7.0,75,0.00,,---,0.00,VWS V14.01,2013-09-22 14:23:00,
2013-09-22 09:28:00,59.8,51.1,30.01,South,177,1.0,7.0,73,0.00,,---,0.00,VWS V14.01,2013-09-22 14:28:00,
2013-09-22 09:33:00,60.2,51.5,30.01,SE,145,1.0,7.0,73,0.00,,---,0.00,VWS V14.01,2013-09-22 14:33:00,
2013-09-22 09:38:00,60.4,51.3,30.01,SE,134,1.0,8.0,72,0.00,,---,0.00,VWS V14.01,2013-09-22 14:38:00,
2013-09-22 09:43:00,60.8,51.7,30.01,ESE,113,2.0,8.0,72,0.00,,---,0.00,VWS V14.01,2013-09-22 14:43:00,
2013-09-22 09:49:00,61.5,52.4,30.01,SE,127,1.0,8.0,72,0.00,,---,0.00,VWS V14.01,2013-09-22 14:49:00,
2013-09-22 09:54:00,62.2,53.1,30.01,ESE,117,1.0,8.0,72,0.00,,---,0.00,VWS V14.01,2013-09-22 14:54:00,
2013-09-22 09:59:00,62.6,52.3,30.01,East,96,4.0,4.0,69,0.00,,---,0.00,VWS V14.01,2013-09-22 14:59:00,
2013-09-22 10:04:00,62.9,53.4,30.01,East,98,2.0,5.0,71,0.00,,---,0.00,VWS V14.01,2013-09-22 15:04:00,
2013-09-22 10:09:00,63.6,53.3,30.01,SE,142,2.0,6.0,69,0.00,,---,0.00,VWS V14.01,2013-09-22 15:09:00,
2013-09-22 10:14:00,64.0,53.2,30.01,East,93,4.0,6.0,68,0.00,,---,0.00,VWS V14.01,2013-09-22 15:14:00,
2013-09-22 10:19:00,64.4,52.8,30.01,ESE,116,4.0,7.0,66,0.00,,---,0.00,VWS V14.01,2013-09-22 15:19:00,
2013-09-22 10:24:00,64.8,53.2,30.01,SE,128,7.0,7.0,66,0.00,,---,0.00,VWS V14.01,2013-09-22 15:24:00,
2013-09-22 10:29:00,65.2,52.7,30.01,SW,219,6.0,6.0,64,0.00,,---,0.00,VWS V14.01,2013-09-22 15:29:00,
2013-09-22 10:35:00,65.8,53.3,30.01,ESE,123,1.0,7.0,64,0.00,,---,0.00,VWS V14.01,2013-09-22 15:35:00,
2013-09-22 10:40:00,66.4,53.9,30.01,East,79,3.0,8.0,64,0.00,,---,0.00,VWS V14.01,2013-09-22 15:40:00,
2013-09-22 10:45:00,67.2,53.3,30.01,SSW,210,3.0,8.0,61,0.00,,---,0.00,VWS V14.01,2013-09-22 15:45:00,
2013-09-22 10:50:00,67.6,53.7,30.01,South,175,4.0,9.0,61,0.00,,---,0.00,VWS V14.01,2013-09-22 15:50:00,
2013-09-22 10:55:00,68.0,53.6,30.01,SE,142,6.0,9.0,60,0.00,,---,0.00,VWS V14.01,2013-09-22 15:55:00,
2013-09-22 11:00:00,68.3,53.9,30.00,SW,235,1.0,4.0,60,0.00,,---,0.00,VWS V14.01,2013-09-22 16:00:00,
2013-09-22 11:05:00,68.9,53.5,30.00,SE,129,5.0,10.0,58,0.00,,---,0.00,VWS V14.01,2013-09-22 16:05:00,
2013-09-22 11:10:00,69.4,53.5,30.00,WNW,286,2.0,10.0,57,0.00,,---,0.00,VWS V14.01,2013-09-22 16:10:00,
2013-09-22 11:16:00,69.8,54.4,30.00,ENE,61,3.0,10.0,58,0.00,,---,0.00,VWS V14.01,2013-09-22 16:16:00,
2013-09-22 11:21:00,70.2,53.8,30.00,SW,235,3.0,10.0,56,0.00,,---,0.00,VWS V14.01,2013-09-22 16:21:00,
2013-09-22 11:26:00,70.3,53.9,30.00,SSE,152,2.0,10.0,56,0.00,,---,0.00,VWS V14.01,2013-09-22 16:26:00,
2013-09-22 11:31:00,70.7,54.2,30.00,South,172,6.0,7.0,56,0.00,,---,0.00,VWS V14.01,2013-09-22 16:31:00,
2013-09-22 11:36:00,70.7,53.8,30.00,ESE,112,9.0,9.0,55,0.00,,---,0.00,VWS V14.01,2013-09-22 16:36:00,
2013-09-22 11:41:00,70.9,54.4,30.00,NNW,327,5.0,9.0,56,0.00,,---,0.00,VWS V14.01,2013-09-22 16:41:00,
2013-09-22 11:47:00,71.6,54.6,30.00,ESE,117,8.0,9.0,55,0.00,,---,0.00,VWS V14.01,2013-09-22 16:47:00,
2013-09-22 11:52:00,71.5,54.0,29.99,SSW,195,2.0,11.0,54,0.00,,---,0.00,VWS V14.01,2013-09-22 16:52:00,
2013-09-22 11:57:00,71.7,54.2,29.99,SSE,155,5.0,12.0,54,0.00,,---,0.00,VWS V14.01,2013-09-22 16:57:00,
2013-09-22 12:02:00,71.7,54.2,29.99,ENE,76,2.0,9.0,54,0.00,,---,0.00,VWS V14.01,2013-09-22 17:02:00,
2013-09-22 12:07:00,72.0,54.0,29.99,East,84,3.0,10.0,53,0.00,,---,0.00,VWS V14.01,2013-09-22 17:07:00,
2013-09-22 12:12:00,72.2,54.1,29.99,ESE,112,4.0,11.0,53,0.00,,---,0.00,VWS V14.01,2013-09-22 17:12:00,
2013-09-22 12:18:00,72.9,55.3,29.98,South,184,5.0,11.0,54,0.00,,---,0.00,VWS V14.01,2013-09-22 17:18:00,
2013-09-22 12:23:00,73.2,54.5,29.98,SSE,161,5.0,11.0,52,0.00,,---,0.00,VWS V14.01,2013-09-22 17:23:00,
2013-09-22 12:28:00,73.4,54.7,29.98,ESE,106,2.0,11.0,52,0.00,,---,0.00,VWS V14.01,2013-09-22 17:28:00,
2013-09-22 12:33:00,73.7,55.5,29.98,SSE,158,2.0,9.0,53,0.00,,---,0.00,VWS V14.01,2013-09-22 17:33:00,
2013-09-22 12:38:00,74.2,55.5,29.97,ESE,120,3.0,9.0,52,0.00,,---,0.00,VWS V14.01,2013-09-22 17:38:00,
2013-09-22 12:43:00,74.5,55.2,29.97,East,96,2.0,9.0,51,0.00,,---,0.00,VWS V14.01,2013-09-22 17:43:00,
2013-09-22 12:48:00,73.9,54.7,29.97,SE,131,8.0,12.0,51,0.00,,---,0.00,VWS V14.01,2013-09-22 17:48:00,
2013-09-22 12:53:00,73.7,55.0,29.97,SSW,193,3.0,12.0,52,0.00,,---,0.00,VWS V14.01,2013-09-22 17:53:00,
2013-09-22 12:58:00,74.1,54.3,29.96,East,95,9.0,12.0,50,0.00,,---,0.00,VWS V14.01,2013-09-22 17:58:00,
2013-09-22 13:03:00,74.0,55.3,29.97,SE,131,3.0,12.0,52,0.00,,---,0.00,VWS V14.01,2013-09-22 18:03:00,
2013-09-22 13:09:00,74.1,54.3,29.96,East,89,5.0,12.0,50,0.00,,---,0.00,VWS V14.01,2013-09-22 18:09:00,
2013-09-22 13:14:00,74.1,54.8,29.96,SSE,165,4.0,12.0,51,0.00,,---,0.00,VWS V14.01,2013-09-22 18:14:00,
2013-09-22 13:19:00,74.4,54.6,29.96,ENE,70,10.0,12.0,50,0.00,,---,0.00,VWS V14.01,2013-09-22 18:19:00,
2013-09-22 13:24:00,74.7,55.4,29.96,SW,228,2.0,12.0,51,0.00,,---,0.00,VWS V14.01,2013-09-22 18:24:00,
2013-09-22 13:29:00,74.6,54.8,29.96,SSW,210,3.0,5.0,50,0.00,,---,0.00,VWS V14.01,2013-09-22 18:29:00,
2013-09-22 13:34:00,74.9,56.1,29.96,West,277,2.0,9.0,52,0.00,,---,0.00,VWS V14.01,2013-09-22 18:34:00,
2013-09-22 13:39:00,75.0,55.7,29.95,SE,143,3.0,9.0,51,0.00,,---,0.00,VWS V14.01,2013-09-22 18:39:00,
2013-09-22 13:44:00,75.1,56.3,29.95,East,101,4.0,11.0,52,0.00,,---,0.00,VWS V14.01,2013-09-22 18:44:00,
2013-09-22 13:50:00,75.4,56.0,29.95,NE,39,3.0,12.0,51,0.00,,---,0.00,VWS V14.01,2013-09-22 18:50:00,
2013-09-22 13:55:00,75.8,56.9,29.94,ESE,123,0.0,12.0,52,0.00,,---,0.00,VWS V14.01,2013-09-22 18:55:00,
2013-09-22 14:00:00,76.4,55.8,29.94,South,174,4.0,6.0,49,0.00,,---,0.00,VWS V14.01,2013-09-22 19:00:00,
2013-09-22 14:05:00,76.4,55.3,29.94,ESE,107,5.0,8.0,48,0.00,,---,0.00,VWS V14.01,2013-09-22 19:05:00,
2013-09-22 14:10:00,76.3,55.8,29.94,SE,131,4.0,8.0,49,0.00,,---,0.00,VWS V14.01,2013-09-22 19:10:00,
2013-09-22 14:16:00,76.6,56.6,29.94,ESE,117,1.0,8.0,50,0.00,,---,0.00,VWS V14.01,2013-09-22 19:16:00,
2013-09-22 14:21:00,76.6,56.0,29.94,SSE,148,6.0,8.0,49,0.00,,---,0.00,VWS V14.01,2013-09-22 19:21:00,
2013-09-22 14:26:00,76.5,55.4,29.93,East,82,5.0,8.0,48,0.00,,---,0.00,VWS V14.01,2013-09-22 19:26:00,
2013-09-22 14:31:00,76.5,55.4,29.93,ESE,107,2.0,10.0,48,0.00,,---,0.00,VWS V14.01,2013-09-22 19:31:00,
2013-09-22 14:36:00,76.1,56.1,29.93,ESE,108,6.0,10.0,50,0.00,,---,0.00,VWS V14.01,2013-09-22 19:36:00,
2013-09-22 14:41:00,76.2,55.7,29.93,SE,131,6.0,10.0,49,0.00,,---,0.00,VWS V14.01,2013-09-22 19:41:00,
2013-09-22 14:46:00,76.4,55.8,29.93,SSE,152,5.0,10.0,49,0.00,,---,0.00,VWS V14.01,2013-09-22 19:46:00,
2013-09-22 14:51:00,76.5,56.5,29.92,ESE,106,3.0,13.0,50,0.00,,---,0.00,VWS V14.01,2013-09-22 19:51:00,
2013-09-22 14:56:00,76.7,56.7,29.92,SE,128,3.0,13.0,50,0.00,,---,0.00,VWS V14.01,2013-09-22 19:56:00,
2013-09-22 15:02:00,77.1,55.9,29.92,SSW,204,3.0,6.0,48,0.00,,---,0.00,VWS V14.01,2013-09-22 20:02:00,
2013-09-22 15:07:00,77.0,55.8,29.92,SSE,152,3.0,8.0,48,0.00,,---,0.00,VWS V14.01,2013-09-22 20:07:00,
2013-09-22 15:12:00,77.0,55.8,29.92,East,82,7.0,9.0,48,0.00,,---,0.00,VWS V14.01,2013-09-22 20:12:00,
2013-09-22 15:18:00,76.6,55.5,29.91,ESE,103,2.0,9.0,48,0.00,,---,0.00,VWS V14.01,2013-09-22 20:18:00,
2013-09-22 15:23:00,76.9,55.7,29.91,ESE,122,2.0,9.0,48,0.00,,---,0.00,VWS V14.01,2013-09-22 20:23:00,
2013-09-22 15:28:00,76.8,55.7,29.91,SSW,198,3.0,10.0,48,0.00,,---,0.00,VWS V14.01,2013-09-22 20:28:00,
2013-09-22 15:33:00,76.9,56.3,29.91,WSW,250,3.0,6.0,49,0.00,,---,0.00,VWS V14.01,2013-09-22 20:33:00,
2013-09-22 15:38:00,77.2,55.4,29.91,ENE,70,3.0,9.0,47,0.00,,---,0.00,VWS V14.01,2013-09-22 20:38:00,
2013-09-22 15:44:00,76.9,55.7,29.91,SE,129,1.0,12.0,48,0.00,,---,0.00,VWS V14.01,2013-09-22 20:44:00,
2013-09-22 15:49:00,76.7,55.5,29.91,SSE,163,4.0,12.0,48,0.00,,---,0.00,VWS V14.01,2013-09-22 20:49:00,
2013-09-22 15:54:00,76.8,55.7,29.90,SSE,160,4.0,12.0,48,0.00,,---,0.00,VWS V14.01,2013-09-22 20:54:00,
2013-09-22 15:59:00,76.8,55.7,29.90,East,84,10.0,10.0,48,0.00,,---,0.00,VWS V14.01,2013-09-22 20:59:00,
2013-09-22 16:04:00,76.7,55.5,29.90,SSW,210,6.0,10.0,48,0.00,,---,0.00,VWS V14.01,2013-09-22 21:04:00,
2013-09-22 16:09:00,77.0,56.4,29.90,South,185,0.0,10.0,49,0.00,,---,0.00,VWS V14.01,2013-09-22 21:09:00,
2013-09-22 16:14:00,77.0,55.8,29.90,SE,143,5.0,10.0,48,0.00,,---,0.00,VWS V14.01,2013-09-22 21:14:00,
2013-09-22 16:19:00,76.9,55.7,29.90,SSE,148,5.0,10.0,48,0.00,,---,0.00,VWS V14.01,2013-09-22 21:19:00,
2013-09-22 16:24:00,77.0,55.8,29.90,SSW,198,1.0,10.0,48,0.00,,---,0.00,VWS V14.01,2013-09-22 21:24:00,
2013-09-22 16:29:00,77.0,55.8,29.90,East,87,6.0,8.0,48,0.00,,---,0.00,VWS V14.01,2013-09-22 21:29:00,
2013-09-22 16:35:00,76.8,55.7,29.90,SSW,196,5.0,12.0,48,0.00,,---,0.00,VWS V14.01,2013-09-22 21:35:00,
2013-09-22 16:40:00,76.7,56.1,29.90,WSW,243,0.0,12.0,49,0.00,,---,0.00,VWS V14.01,2013-09-22 21:40:00,
2013-09-22 16:45:00,76.7,55.5,29.89,ENE,78,5.0,12.0,48,0.00,,---,0.00,VWS V14.01,2013-09-22 21:45:00,
2013-09-22 16:50:00,76.8,55.1,29.90,East,81,7.0,12.0,47,0.00,,---,0.00,VWS V14.01,2013-09-22 21:50:00,
2013-09-22 16:55:00,76.4,55.8,29.89,ESE,120,6.0,13.0,49,0.00,,---,0.00,VWS V14.01,2013-09-22 21:55:00,
2013-09-22 17:00:00,76.3,55.2,29.89,South,176,3.0,5.0,48,0.00,,---,0.00,VWS V14.01,2013-09-22 22:00:00,
2013-09-22 17:05:00,76.5,55.9,29.89,SSE,162,3.0,10.0,49,0.00,,---,0.00,VWS V14.01,2013-09-22 22:05:00,
2013-09-22 17:11:00,76.4,55.8,29.89,SSW,203,3.0,10.0,49,0.00,,---,0.00,VWS V14.01,2013-09-22 22:11:00,
2013-09-22 17:16:00,76.4,55.8,29.89,ESE,122,6.0,10.0,49,0.00,,---,0.00,VWS V14.01,2013-09-22 22:16:00,
2013-09-22 17:21:00,76.5,57.0,29.89,SE,131,1.0,10.0,51,0.00,,---,0.00,VWS V14.01,2013-09-22 22:21:00,
2013-09-22 17:26:00,76.5,56.5,29.89,SE,146,7.0,10.0,50,0.00,,---,0.00,VWS V14.01,2013-09-22 22:26:00,
2013-09-22 17:31:00,76.3,56.3,29.89,SW,229,2.0,5.0,50,0.00,,---,0.00,VWS V14.01,2013-09-22 22:31:00,
2013-09-22 17:37:00,76.1,56.1,29.89,SE,143,1.0,8.0,50,0.00,,---,0.00,VWS V14.01,2013-09-22 22:37:00,
2013-09-22 17:42:00,75.9,56.0,29.89,East,101,4.0,9.0,50,0.00,,---,0.00,VWS V14.01,2013-09-22 22:42:00,
2013-09-22 17:47:00,75.8,55.9,29.89,ENE,73,3.0,9.0,50,0.00,,---,0.00,VWS V14.01,2013-09-22 22:47:00,
2013-09-22 17:52:00,75.8,55.9,29.89,SSE,163,0.0,9.0,50,0.00,,---,0.00,VWS V14.01,2013-09-22 22:52:00,
2013-09-22 17:57:00,75.6,56.2,29.89,ESE,108,8.0,9.0,51,0.00,,---,0.00,VWS V14.01,2013-09-22 22:57:00,
2013-09-22 18:02:00,75.3,55.9,29.89,ESE,123,0.0,6.0,51,0.00,,---,0.00,VWS V14.01,2013-09-22 23:02:00,
2013-09-22 18:07:00,75.3,55.9,29.89,NE,40,0.0,7.0,51,0.00,,---,0.00,VWS V14.01,2013-09-22 23:07:00,
2013-09-22 18:12:00,75.0,56.2,29.90,SE,145,2.0,8.0,52,0.00,,---,0.00,VWS V14.01,2013-09-22 23:12:00,
2013-09-22 18:17:00,74.5,56.3,29.90,SSE,162,1.0,8.0,53,0.00,,---,0.00,VWS V14.01,2013-09-22 23:17:00,
2013-09-22 18:23:00,74.1,56.4,29.90,East,96,7.0,9.0,54,0.00,,---,0.00,VWS V14.01,2013-09-22 23:23:00,
2013-09-22 18:28:00,73.7,56.0,29.90,SE,141,4.0,9.0,54,0.00,,---,0.00,VWS V14.01,2013-09-22 23:28:00,
2013-09-22 18:33:00,73.3,56.2,29.90,SE,126,1.0,6.0,55,0.00,,---,0.00,VWS V14.01,2013-09-22 23:33:00,
2013-09-22 18:38:00,72.9,56.3,29.90,East,82,6.0,7.0,56,0.00,,---,0.00,VWS V14.01,2013-09-22 23:38:00,
2013-09-22 18:43:00,72.5,56.4,29.90,ESE,120,2.0,7.0,57,0.00,,---,0.00,VWS V14.01,2013-09-22 23:43:00,
2013-09-22 18:48:00,72.0,56.4,29.90,East,98,3.0,7.0,58,0.00,,---,0.00,VWS V14.01,2013-09-22 23:48:00,
2013-09-22 18:54:00,71.6,56.1,29.90,SE,145,0.0,7.0,58,0.00,,---,0.00,VWS V14.01,2013-09-22 23:54:00,
2013-09-22 18:59:00,71.2,56.2,29.90,ESE,120,0.0,0.0,59,0.00,,---,0.00,VWS V14.01,2013-09-22 23:59:00,
2013-09-22 19:04:00,70.8,55.8,29.89,East,94,0.0,5.0,59,0.00,,---,0.00,VWS V14.01,2013-09-23 00:04:00,
2013-09-22 19:09:00,70.5,56.0,29.89,East,79,1.0,5.0,60,0.00,,---,0.00,VWS V14.01,2013-09-23 00:09:00,
2013-09-22 19:14:00,70.3,55.3,29.89,ENE,64,4.0,8.0,59,0.00,,---,0.00,VWS V14.01,2013-09-23 00:14:00,
2013-09-22 19:19:00,70.1,55.6,29.89,South,191,1.0,8.0,60,0.00,,---,0.00,VWS V14.01,2013-09-23 00:19:00,
2013-09-22 19:24:00,69.8,55.3,29.90,South,176,4.0,8.0,60,0.00,,---,0.00,VWS V14.01,2013-09-23 00:24:00,
2013-09-22 19:30:00,69.6,55.1,29.90,ENE,71,2.0,3.0,60,0.00,,---,0.00,VWS V14.01,2013-09-23 00:30:00,
2013-09-22 19:35:00,69.3,55.3,29.90,NE,42,3.0,3.0,61,0.00,,---,0.00,VWS V14.01,2013-09-23 00:35:00,
2013-09-22 19:40:00,68.9,54.9,29.90,East,90,0.0,5.0,61,0.00,,---,0.00,VWS V14.01,2013-09-23 00:40:00,
2013-09-22 19:45:00,68.6,54.6,29.90,SE,142,2.0,6.0,61,0.00,,---,0.00,VWS V14.01,2013-09-23 00:45:00,
2013-09-22 19:50:00,68.4,54.9,29.90,ESE,112,2.0,6.0,62,0.00,,---,0.00,VWS V14.01,2013-09-23 00:50:00,
2013-09-22 19:55:00,68.1,54.6,29.90,East,94,0.0,6.0,62,0.00,,---,0.00,VWS V14.01,2013-09-23 00:55:00,
2013-09-22 20:01:00,67.9,54.4,29.90,ESE,120,0.0,2.0,62,0.00,,---,0.00,VWS V14.01,2013-09-23 01:01:00,
2013-09-22 20:06:00,67.6,54.6,29.90,ENE,70,0.0,3.0,63,0.00,,---,0.00,VWS V14.01,2013-09-23 01:06:00,
2013-09-22 20:11:00,67.3,54.7,29.91,SE,125,0.0,3.0,64,0.00,,---,0.00,VWS V14.01,2013-09-23 01:11:00,
2013-09-22 20:16:00,67.0,54.9,29.91,SE,139,0.0,3.0,65,0.00,,---,0.00,VWS V14.01,2013-09-23 01:16:00,
2013-09-22 20:21:00,66.7,54.6,29.91,SE,125,0.0,3.0,65,0.00,,---,0.00,VWS V14.01,2013-09-23 01:21:00,
2013-09-22 20:26:00,66.4,54.7,29.91,East,80,0.0,3.0,66,0.00,,---,0.00,VWS V14.01,2013-09-23 01:26:00,
2013-09-22 20:32:00,65.9,54.7,29.91,SE,139,0.0,1.0,67,0.00,,---,0.00,VWS V14.01,2013-09-23 01:32:00,
2013-09-22 20:37:00,65.6,54.8,29.91,NNE,33,0.0,1.0,68,0.00,,---,0.00,VWS V14.01,2013-09-23 01:37:00,
2013-09-22 20:42:00,65.4,54.6,29.92,West,271,0.0,2.0,68,0.00,,---,0.00,VWS V14.01,2013-09-23 01:42:00,
2013-09-22 20:47:00,65.1,54.3,29.92,SW,215,0.0,2.0,68,0.00,,---,0.00,VWS V14.01,2013-09-23 01:47:00,
2013-09-22 20:52:00,65.0,54.2,29.92,East,90,0.0,3.0,68,0.00,,---,0.00,VWS V14.01,2013-09-23 01:52:00,
2013-09-22 20:57:00,64.9,54.1,29.92,SE,142,0.0,4.0,68,0.00,,---,0.00,VWS V14.01,2013-09-23 01:57:00,
2013-09-22 21:02:00,64.9,54.1,29.92,East,99,0.0,3.0,68,0.00,,---,0.00,VWS V14.01,2013-09-23 02:02:00,
2013-09-22 21:07:00,64.8,54.0,29.92,ESE,110,0.0,4.0,68,0.00,,---,0.00,VWS V14.01,2013-09-23 02:07:00,
2013-09-22 21:13:00,64.7,53.9,29.92,SSE,153,2.0,4.0,68,0.00,,---,0.00,VWS V14.01,2013-09-23 02:13:00,
2013-09-22 21:18:00,64.6,53.8,29.92,SE,139,0.0,4.0,68,0.00,,---,0.00,VWS V14.01,2013-09-23 02:18:00,
2013-09-22 21:23:00,64.7,53.9,29.92,SE,124,0.0,4.0,68,0.00,,---,0.00,VWS V14.01,2013-09-23 02:23:00,
2013-09-22 21:28:00,64.7,53.9,29.92,SE,141,3.0,4.0,68,0.00,,---,0.00,VWS V14.01,2013-09-23 02:28:00,
2013-09-22 21:33:00,64.6,53.8,29.92,East,89,4.0,5.0,68,0.00,,---,0.00,VWS V14.01,2013-09-23 02:33:00,
2013-09-22 21:38:00,64.6,53.8,29.92,ESE,117,0.0,5.0,68,0.00,,---,0.00,VWS V14.01,2013-09-23 02:38:00,
2013-09-22 21:44:00,64.4,53.6,29.92,SW,214,1.0,5.0,68,0.00,,---,0.00,VWS V14.01,2013-09-23 02:44:00,
2013-09-22 21:49:00,64.3,53.5,29.92,SSE,158,1.0,5.0,68,0.00,,---,0.00,VWS V14.01,2013-09-23 02:49:00,
2013-09-22 21:54:00,64.5,53.7,29.92,ESE,105,3.0,9.0,68,0.00,,---,0.00,VWS V14.01,2013-09-23 02:54:00,
2013-09-22 21:59:00,64.4,53.6,29.92,ESE,117,6.0,6.0,68,0.00,,---,0.00,VWS V14.01,2013-09-23 02:59:00,
2013-09-22 22:04:00,64.2,53.4,29.93,ESE,102,2.0,6.0,68,0.00,,---,0.00,VWS V14.01,2013-09-23 03:04:00,
2013-09-22 22:09:00,63.9,53.5,29.93,West,264,0.0,6.0,69,0.00,,---,0.00,VWS V14.01,2013-09-23 03:09:00,
2013-09-22 22:15:00,63.7,53.3,29.93,SE,125,3.0,6.0,69,0.00,,---,0.00,VWS V14.01,2013-09-23 03:15:00,
2013-09-22 22:20:00,63.4,53.5,29.93,ENE,66,0.0,6.0,70,0.00,,---,0.00,VWS V14.01,2013-09-23 03:20:00,
2013-09-22 22:25:00,63.2,53.3,29.93,SE,124,2.0,6.0,70,0.00,,---,0.00,VWS V14.01,2013-09-23 03:25:00,
2013-09-22 22:30:00,62.9,53.0,29.93,East,94,1.0,2.0,70,0.00,,---,0.00,VWS V14.01,2013-09-23 03:30:00,
2013-09-22 22:35:00,62.7,52.8,29.93,SE,125,3.0,5.0,70,0.00,,---,0.00,VWS V14.01,2013-09-23 03:35:00,
2013-09-22 22:40:00,62.6,52.7,29.93,ESE,122,0.0,5.0,70,0.00,,---,0.00,VWS V14.01,2013-09-23 03:40:00,
2013-09-22 22:46:00,62.4,52.5,29.93,ESE,113,4.0,5.0,70,0.00,,---,0.00,VWS V14.01,2013-09-23 03:46:00,
2013-09-22 22:51:00,62.4,52.5,29.93,East,86,1.0,5.0,70,0.00,,---,0.00,VWS V14.01,2013-09-23 03:51:00,
2013-09-22 22:56:00,62.2,52.3,29.93,East,90,0.0,5.0,70,0.00,,---,0.00,VWS V14.01,2013-09-23 03:56:00,
2013-09-22 23:01:00,62.1,52.6,29.93,SE,142,1.0,4.0,71,0.00,,---,0.00,VWS V14.01,2013-09-23 04:01:00,
2013-09-22 23:02:00,62.0,52.5,29.93,ESE,123,1.0,4.0,71,0.00,,---,0.00,VWS V14.01,2013-09-23 04:02:00,
2013-09-22 23:07:00,61.8,52.3,29.93,East,79,3.0,4.0,71,0.00,,---,0.00,VWS V14.01,2013-09-23 04:07:00,
2013-09-22 23:09:00,61.7,52.2,29.93,SE,139,0.0,4.0,71,0.00,,---,0.00,VWS V14.01,2013-09-23 04:09:00,
2013-09-22 23:15:00,61.5,52.0,29.93,East,86,2.0,6.0,71,0.00,,---,0.00,VWS V14.01,2013-09-23 04:15:00,
2013-09-22 23:20:00,61.4,52.3,29.93,SSE,152,0.0,6.0,72,0.00,,---,0.00,VWS V14.01,2013-09-23 04:20:00,
2013-09-22 23:25:00,61.2,52.1,29.93,SE,131,1.0,6.0,72,0.00,,---,0.00,VWS V14.01,2013-09-23 04:25:00,
2013-09-22 23:30:00,61.1,52.0,29.93,ESE,123,2.0,3.0,72,0.00,,---,0.00,VWS V14.01,2013-09-23 04:30:00,
2013-09-22 23:35:00,60.9,51.8,29.93,ESE,114,2.0,4.0,72,0.00,,---,0.00,VWS V14.01,2013-09-23 04:35:00,
2013-09-22 23:41:00,60.9,51.8,29.93,ENE,76,2.0,6.0,72,0.00,,---,0.00,VWS V14.01,2013-09-23 04:41:00,
2013-09-22 23:46:00,60.8,51.7,29.93,WNW,302,1.0,8.0,72,0.00,,---,0.00,VWS V14.01,2013-09-23 04:46:00,
2013-09-22 23:51:00,60.7,51.6,29.93,WSW,257,0.0,8.0,72,0.00,,---,0.00,VWS V14.01,2013-09-23 04:51:00,
2013-09-22 23:56:00,60.6,51.5,29.93,NW,313,0.0,8.0,72,0.00,,---,0.00,VWS V14.01,2013-09-23 04:56:00,